Home   Weather   Yazd   Past weeks

Flag for Iran Past Weather in Yazd, Iran — Yesterday and Last 2 Weeks

63 °F


Feels Like: 63 °F
Forecast: 47 / 74 °F
Wind: 12 mph from Northwest

Location: Yazd Airport

Current Time: Oct 24, 2016 at 11:37:49 PM

Latest Report: Oct 24, 2016 at 10:30 PM

Visibility: 10 mi

Pressure: 30.15 "Hg (26.12 "Hg at 1218m altitude)

Humidity: 25%

Dew Point: 27 °F

Location of YazdLocation

Past Weather in Yazd — Graph


Yazd Temperature Yesterday

Maximum temperature yesterday: 75 °F (at 2:30 PM)
Minimum temperature yesterday: 52 °F (at 6:30 AM)
Average temperature yesterday: 65 °F

High & Low Weather Summary for the Past Weeks

High90 °F (Oct 10, 1:30 PM)41% (Oct 20, 5:00 AM)30.27 "Hg (Oct 20, 5:00 AM)
Low52 °F (Oct 23, 6:30 AM)6% (Oct 10, 1:30 PM)29.95 "Hg (Oct 10, 3:30 PM)
Average71 °F18%30.11 "Hg
* Reported Oct 9 10:30 PM — Oct 24 10:30 PM, Yazd, Weather by CustomWeather, © 2016

Note: Actual official high and low records may vary slightly from our data, if they occured in-between our weather recording intervals... More about our weather records


Yazd Weather History for the Previous 24 Hours

Scroll right to see more
Time TempWeatherWind HumidityBarometerVisibility
10:30 PM
Mon, Oct 24
63 °FClear.12 mph25%30.15 "Hg10 mi
10:00 PM64 °FClear.9 mph24%30.15 "Hg10 mi
9:30 PM64 °FClear.9 mph24%30.15 "Hg10 mi
9:00 PM64 °FClear.9 mph24%30.15 "Hg10 mi
8:30 PM66 °FClear.9 mph22%30.15 "Hg10 mi
8:00 PM66 °FClear.7 mph24%30.15 "Hg10 mi
7:30 PM68 °FClear.7 mph23%30.12 "Hg10 mi
7:00 PM68 °FClear.7 mph23%30.12 "Hg10 mi
6:30 PM68 °FClear.7 mph23%30.12 "Hg10 mi
6:00 PM68 °FClear.5 mph23%30.12 "Hg10 mi
5:30 PM70 °FSunny.7 mph23%30.09 "Hg10 mi
5:00 PM72 °FSunny.7 mph20%30.09 "Hg10 mi
4:30 PM73 °FSunny.9 mph19%30.09 "Hg10 mi
4:00 PM75 °FSunny.7 mph19%30.09 "Hg10 mi
3:30 PM75 °FSunny.7 mph19%30.09 "Hg10 mi
2:30 PM75 °FSunny.5 mph18%30.09 "Hg10 mi
1:30 PM73 °FSunny.2 mph19%30.12 "Hg10 mi
12:30 PM72 °FSunny.5 mph20%30.15 "Hg10 mi
11:30 AM72 °FSunny.5 mph20%30.18 "Hg10 mi
10:30 AM68 °FSunny.2 mph23%30.18 "Hg10 mi
9:30 AM66 °FSunny.2 mph24%30.21 "Hg10 mi
9:00 AM64 °FSunny.2 mph26%30.21 "Hg10 mi
8:30 AM61 °FSunny.2 mph29%30.21 "Hg10 mi
8:00 AM59 °FSunny.2 mph31%30.21 "Hg10 mi
7:30 AM57 °FSunny.5 mph33%30.21 "Hg10 mi
7:00 AM54 °FSunny.5 mph35%30.21 "Hg10 mi
6:30 AM52 °FClear.5 mph38%30.18 "Hg10 mi
6:00 AM52 °FClear.5 mph38%30.18 "Hg10 mi
5:30 AM52 °FClear.2 mph38%30.18 "Hg10 mi
5:00 AM54 °FClear.5 mph35%30.18 "Hg10 mi
4:30 AM54 °FClear.5 mph35%30.18 "Hg10 mi
3:30 AM55 °FPassing clouds.5 mph33%30.15 "HgN/A
3:20 AM55 °FPassing clouds.5 mph33%30.15 "HgN/A
2:30 AM55 °FClear.2 mph31%30.15 "Hg10 mi
1:30 AM57 °FClear.2 mph31%30.15 "Hg10 mi
12:30 AM57 °FClear.2 mph31%30.15 "Hg10 mi
11:30 PM
Sun, Oct 23
61 °FClear.5 mph29%30.18 "Hg10 mi
Weather by CustomWeather, © 2016

See weather overviewHow to use our weather pages